Flag for Germany Weather past 2 weeks in Koblenz, Rhineland-Palatinate, Germany

Now
73 °F

Mild.


Feels Like: 77 °F
Forecast: 49 / 82 °F
Wind: 8 mph from Northeast

Location: Buechel

Current Time: Aug 1, 2015 at 6:50:11 PM

Latest Report: Aug 1, 2015 at 6:20 PM


Visibility: N/A

Pressure: 29.98 "Hg

Humidity: 36%

Dew point: 45 °F

Location of KoblenzLocation

Historic Weather in Koblenz — Graph

°F

Koblenz temperature yesterday

Maximum temperature yesterday: 64 °F (at 5:20 PM)
Minimum temperature yesterday: 46 °F (at 5:20 AM)
Average temperature yesterday: 55 °F

Past Weeks' High & Low Weather Summary

 TemperatureHumidityPressure
High88 °F (Jul 17, 4:20 PM)100% (Jul 19, 6:20 AM)30.15 "Hg (Jul 19, 6:20 AM)
Low45 °F (Jul 30, 3:20 AM)22% (Jul 17, 4:20 PM)29.62 "Hg (Jul 27, 4:20 AM)
Average62 °F71%29.93 "Hg
* Reported Jul 17 4:20 PM — Aug 1 4:20 PM, Koblenz, Weather by CustomWeather, © 2015

Note: Actual official high and low records may vary slightly from our data, if they occured in-between our weather recording intervals... More about our weather records

Advertising

Koblenz weather history for previous 24 hours

 ConditionsComfort  
Time TempWeatherWind HumidityBarometerVisibility
4:20 PM
Sat, Aug 1
75 °FMild.3 mph29%29.98 "HgN/A
3:20 PM73 °FMild.5 mph36%29.98 "HgN/A
2:20 PM72 °FMild.6 mph36%29.98 "HgN/A
1:20 PM70 °FMild.7 mph40%29.98 "HgN/A
12:20 PM68 °FMild.5 mph43%29.98 "HgN/A
11:20 AM64 °FMild.5 mph49%29.98 "HgN/A
10:20 AM61 °FRefreshingly cool.6 mph52%29.98 "HgN/A
9:20 AM57 °FRefreshingly cool.7 mph55%29.98 "HgN/A
8:20 AM54 °FCool.8 mph63%29.98 "HgN/A
7:20 AM52 °FCool.9 mph67%29.98 "HgN/A
6:20 AM54 °FCool.8 mph58%29.95 "Hg1 mi
5:20 AM54 °FCool.9 mph58%29.95 "HgN/A
4:20 AM54 °FCool.10 mph58%29.98 "HgN/A
3:20 AM55 °FRefreshingly cool.10 mph55%29.98 "HgN/A
2:20 AM55 °FRefreshingly cool.9 mph55%30.01 "HgN/A
1:20 AM55 °FRefreshingly cool.9 mph59%30.01 "HgN/A
12:20 AM55 °FRefreshingly cool.10 mph59%30.01 "HgN/A
11:20 PM
Fri, Jul 31
55 °FRefreshingly cool.8 mph59%30.01 "HgN/A
10:20 PM57 °FRefreshingly cool.7 mph55%30.01 "HgN/A
9:20 PM59 °FRefreshingly cool.7 mph48%30.01 "HgN/A
8:20 PM61 °FRefreshingly cool.9 mph45%30.01 "HgN/A
7:20 PM63 °FMild.10 mph42%30.01 "HgN/A
6:20 PM64 °FMild.9 mph40%30.04 "HgN/A
Weather by CustomWeather, © 2015

See weather overviewHow to use our weather pages